#timestamp,LO_Frequency,Hit,StdDev 
1561489215.0,286047000.8,N
1561489215.9,286047000.8,N
1561489235.8,286047000.5,N
1561489255.6,286047000.7,N
1561489275.5,286046999.7,N
1561489295.3,286047000.2,N
1561489315.1,286047002.1,N
1561489335.9,286047001.9,N
1561489355.7,286046999.8,N
1561489375.6,286047002.8,Y
1561489395.4,286047000.5,P
1561489415.2,286047000.0,N
1561489435.1,286047000.3,N
1561489436.0,286047000.3,N
1561489455.8,286047000.2,N
1561489475.6,286046999.9,N
1561489495.5,286046999.7,N
1561489515.3,286046999.9,N
1561489535.6,286046999.7,N
1561489555.4,286047000.9,Y
1561489575.2,286047000.7,P
1561489595.1,286046998.1,P
1561489596.0,286046998.1,N
1561489615.8,286047001.0,N
1561489635.7,286047000.4,N
1561489655.5,286047000.4,N
1561489675.3,286047000.2,N
1561489695.2,286047001.0,N
1561489715.0,286047000.6,N
1561489715.9,286047000.6,N
1561489735.7,286047001.2,N
1561489755.6,286046998.3,N
1561489775.4,286046998.3,N
1561489795.3,286046999.3,N
1561489815.1,286046998.5,N
1561489816.0,286046998.5,N
1561489835.7,286046998.2,N
1561489855.6,286047000.6,N
1561489875.4,286047000.7,N
1561489895.2,286046998.1,N
1561489915.1,286046999.1,N
1561489916.0,286046999.1,N
1561489935.8,286046996.7,N
1561489955.7,286046996.5,N
1561489975.5,286046999.1,N
1561489995.3,286046999.3,N
1561490015.2,286046999.3,N
1561490035.0,286046999.6,N
1561490035.9,286046999.6,N
1561490055.8,286046996.9,N
1561490075.6,286046996.6,N
1561490095.4,286046999.5,N
1561490115.3,286046999.0,N
1561490135.1,286046999.0,N
1561490155.9,286046998.9,N
1561490175.7,286046998.7,N
1561490195.5,286046998.8,N
1561490215.4,286047001.0,N
1561490235.3,286046998.5,N
1561490255.1,286047000.4,N
1561490256.0,286047000.4,N
1561490275.8,286047000.6,N
1561490295.7,286047000.9,N
1561490315.5,286047000.8,N
1561490335.4,286046998.6,N
1561490355.2,286046998.7,N
1561490375.0,286046998.7,N
1561490375.9,286046998.7,N
1561490395.8,286046998.3,N
1561490415.6,286046999.6,N
1561490435.4,286046998.9,N
1561490455.3,286046998.8,N
1561490475.1,286046996.5,N
1561490495.9,286046999.6,N
1561490515.7,286046999.3,N
1561490535.5,286046997.0,N
1561490555.4,286046997.8,N
1561490575.2,286046997.0,N
1561490595.0,286046997.1,N
1561490595.9,286046997.1,N
1561490615.8,286046995.3,Y
1561490635.6,286046998.5,P
1561490655.5,286046998.9,P
1561490675.3,286046999.4,P
1561490695.1,286046997.2,Y
1561490715.9,286046999.4,P
1561490735.7,286046998.7,P
1561490755.5,286046998.2,P
1561490775.4,286046998.2,Y
1561490795.2,286047000.0,P
1561490815.1,286046999.8,N
1561490816.0,286046999.8,N
1561490835.8,286047002.3,Y
1561490855.6,286047002.5,P
1561490875.5,286047001.8,N
1561490895.3,286047004.4,P
1561490915.2,286047002.0,N
1561490935.9,286047001.7,N
1561490955.7,286047003.6,N
1561490975.6,286047004.1,N
1561490995.4,286047001.3,N
1561491015.2,286047003.8,N
1561491035.1,286047001.4,N
1561491036.0,286047001.4,N
1561491055.8,286047004.1,N
1561491075.7,286047001.5,N
1561491095.5,286047004.3,Y
1561491115.3,286047002.3,P
1561491135.2,286046999.7,P
1561491155.0,286046999.7,N
1561491155.9,286046999.7,N
1561491175.8,286047000.2,N
1561491195.6,286047000.0,N
1561491215.4,286047000.0,N
1561491235.3,286046999.9,N
1561491255.1,286047000.3,N
1561491275.8,286047000.9,N
1561491295.7,286047000.9,N
1561491315.5,286046998.9,N
1561491335.4,286047001.1,N
1561491355.2,286046999.5,N
1561491375.0,286046996.5,Y
1561491375.9,286046996.5,P
1561491395.8,286046998.5,N
1561491415.6,286046998.5,N
1561491435.4,286046998.2,N
1561491455.3,286046999.2,N
1561491475.1,286046999.1,N
1561491495.9,286047001.1,N
1561491515.7,286047001.1,N
1561491535.5,286047000.0,N
1561491555.4,286047001.1,N
1561491575.2,286046999.3,N
1561491595.0,286046999.3,N
1561491596.0,286046999.3,N
1561491615.8,286046999.3,N
1561491635.6,286047000.6,N
1561491655.5,286047001.0,N
1561491675.3,286046998.2,N
1561491695.1,286047000.8,N
1561491715.9,286047000.0,N
1561491735.7,286047000.2,N
1561491755.6,286047002.8,N
1561491775.4,286047002.7,N
1561491795.2,286047002.7,N
1561491815.1,286047002.4,N
1561491816.0,286047002.4,N
1561491835.8,286047000.6,N
1561491855.7,286046998.8,N
1561491875.5,286046998.5,N
1561491895.3,286047001.1,N
1561491915.2,286046998.9,N
1561491935.9,286046998.1,N
1561491955.7,286047001.2,N
1561491975.6,286047000.0,N
1561491995.4,286047001.0,N
1561492015.3,286047001.2,N
1561492035.1,286047000.5,N
1561492036.0,286047000.5,N
1561492055.8,286047002.4,N
1561492075.7,286047000.1,N
1561492095.5,286047000.0,N
1561492115.3,286047000.3,N
1561492135.2,286047000.2,N
1561492155.0,286047001.0,N
1561492155.9,286047001.0,N
1561492175.8,286047001.1,N
1561492195.6,286047000.8,N
1561492215.4,286047000.6,N
1561492235.3,286047002.4,N
1561492255.1,286047000.9,N
1561492275.9,286047000.4,N
1561492295.7,286047000.6,N
1561492315.5,286047000.4,N
1561492335.4,286047002.2,N
1561492355.2,286047000.3,N
1561492375.0,286046999.8,N
1561492376.0,286046999.8,N
1561492395.8,286047002.2,N
1561492415.6,286047000.2,N
1561492435.5,286047002.5,N
1561492455.3,286047001.3,N
1561492475.1,286047003.7,Y
1561492495.9,286047001.7,P
1561492515.7,286047001.4,N
1561492535.6,286047002.0,P
1561492555.4,286047002.8,Y
1561492575.2,286046999.9,P
1561492595.1,286047000.3,N
1561492596.0,286047000.3,N
1561492615.8,286047001.9,Y
1561492635.7,286047002.8,P
1561492655.5,286047001.2,N
1561492675.3,286047001.0,N
1561492695.2,286046999.7,N
1561492715.0,286047002.7,N
1561492715.9,286047002.7,N
1561492735.8,286047000.0,N
1561492755.6,286047000.8,N
1561492775.4,286046998.6,N
1561492795.6,286046999.6,N
